TimeEST,TemperatureF,Dew PointF,Humidity,Sea Level PressureIn,VisibilityMPH,Wind Direction,Wind SpeedMPH,Gust SpeedMPH,PrecipitationIn,Events,Conditions,WindDirDegrees,DateUTC
12:56 AM,44.1,43.0,96,30.23,5.0,Calm,Calm,-,N/A,,Clear,0,2011-11-08 05:56:00
1:56 AM,43.0,42.1,97,30.23,6.0,NNE,3.5,-,N/A,,Clear,20,2011-11-08 06:56:00
2:33 AM,42.8,42.8,100,30.23,1.8,Calm,Calm,-,N/A,,Clear,0,2011-11-08 07:33:00
2:50 AM,41.0,39.2,93,30.22,3.0,Calm,Calm,-,N/A,,Clear,0,2011-11-08 07:50:00
2:56 AM,42.1,41.0,96,30.22,2.5,Variable,3.5,-,N/A,,Clear,0,2011-11-08 07:56:00
3:35 AM,41.0,41.0,100,30.22,6.0,Calm,Calm,-,N/A,,Clear,0,2011-11-08 08:35:00
3:56 AM,42.1,41.0,96,30.23,6.0,Calm,Calm,-,N/A,,Clear,0,2011-11-08 08:56:00
4:56 AM,42.1,41.0,96,30.23,6.0,North,3.5,-,N/A,,Clear,10,2011-11-08 09:56:00
5:56 AM,41.0,41.0,100,30.24,4.0,North,3.5,-,N/A,,Clear,350,2011-11-08 10:56:00
6:56 AM,42.1,41.0,96,30.26,6.0,Calm,Calm,-,N/A,,Clear,0,2011-11-08 11:56:00
7:56 AM,48.0,46.0,93,30.27,8.0,Calm,Calm,-,N/A,,Clear,0,2011-11-08 12:56:00
8:56 AM,54.0,48.0,80,30.27,10.0,Calm,Calm,-,N/A,,Clear,0,2011-11-08 13:56:00
9:56 AM,61.0,51.1,70,30.26,10.0,Variable,3.5,-,N/A,,Clear,0,2011-11-08 14:56:00
10:56 AM,66.9,50.0,54,30.25,10.0,NNE,5.8,-,N/A,,Clear,30,2011-11-08 15:56:00
11:56 AM,68.0,48.9,50,30.23,10.0,Variable,4.6,-,N/A,,Clear,0,2011-11-08 16:56:00
12:56 PM,63.0,52.0,67,30.21,10.0,SSW,6.9,-,N/A,,Clear,200,2011-11-08 17:56:00
1:56 PM,63.0,51.1,65,30.21,10.0,SW,9.2,-,N/A,,Clear,230,2011-11-08 18:56:00
2:56 PM,63.0,50.0,63,30.21,10.0,SW,4.6,-,N/A,,Clear,220,2011-11-08 19:56:00
3:56 PM,61.0,50.0,67,30.21,10.0,SW,5.8,-,N/A,,Clear,230,2011-11-08 20:56:00
4:56 PM,55.9,52.0,87,30.22,10.0,Calm,Calm,-,N/A,,Clear,0,2011-11-08 21:56:00
5:56 PM,54.0,51.1,90,30.23,10.0,Calm,Calm,-,N/A,,Clear,0,2011-11-08 22:56:00
6:56 PM,50.0,46.9,89,30.24,10.0,Calm,Calm,-,N/A,,Clear,0,2011-11-08 23:56:00
7:56 PM,48.0,46.9,96,30.24,9.0,Calm,Calm,-,N/A,,Clear,0,2011-11-09 00:56:00
8:56 PM,46.9,46.0,97,30.24,7.0,Calm,Calm,-,N/A,,Clear,0,2011-11-09 01:56:00
9:56 PM,46.4,46.4,100,30.24,7.0,Calm,Calm,-,N/A,,Clear,0,2011-11-09 02:56:00
10:56 PM,46.0,45.0,96,30.23,6.0,Calm,Calm,-,N/A,,Clear,0,2011-11-09 03:56:00
11:56 PM,45.0,44.1,97,30.22,7.0,Calm,Calm,-,N/A,,Clear,0,2011-11-09 04:56:00